Location: ?????????
(55.6553°N, 38.9075°E)
Time: 20:31:26
(UTC+00:00)

USA 234 - Pass Details

Date: 18 October 2019
Orbit: 1102 x 1106 km, 123.0° (Epoch: 12 November)

Event Time Altitude Azimuth Distance (km) Brightness Sun altitude
Rises 01:10:21 0° 145° (SE) 3,911 6.3 -24.4°
Reaches altitude 10° 01:13:01 10° 153° (SSE) 2,956 5.6 -24.0°
Maximum altitude 01:19:04 40° 221° (SW) 1,582 3.6 -23.2°
Enters shadow 01:19:11 40° 224° (SW) 1,583 3.6 -23.2°
